Miscellaneous Local Product
Issued by NWS Hastings, NE

Home | Current Version | Previous Version | Text Only | Print | Product List | Glossary Off
Versions: 1 2 3 4 5 6 7 8 9 10 11 12 13 14 15 16 17 18 19 20 21 22 23 24 25 26 27 28 29 30 31 32 33 34 35 36 37 38 39 40 41 42 43 44 45 46 47 48 49 50

000
AXUS43 KGID 270502
MISGRI

GID CWA HOURLY WEATHER ROUNDUP
NATIONAL WEATHER SERVICE HASTINGS NE
1200 AM CDT WED MAY 27 2015

NOTE: "FAIR" INDICATES FEW OR NO CLOUDS BELOW 12,000 FEET WITH NO
SIGNIFICANT WEATHER AND/OR OBSTRUCTIONS TO VISIBILITY.

...SOUTH CENTRAL NEBRASKA...

CITY           SKY/WX    TMP DP  RH WIND       PRES   REMARKS
GRAND ISLAND   CLEAR     56  48  74 W8        30.00R
HASTINGS       CLEAR     57  49  74 SW5       30.00S
KEARNEY        CLEAR     61  48  63 W6        30.01S
ORD            CLEAR     55  48  77 CALM      29.98R
YORK           CLEAR     55  52  88 W7        29.98S
AURORA         CLEAR     55  51  86 W5        29.99S
LEXINGTON      CLEAR     55  50  82 CALM      30.02F
HOLDREGE       CLEAR     55  49  78 CALM      30.02S
HEBRON         CLEAR     56  50  80 W5        29.99S

...NEBRASKA PANHANDLE...

CITY           SKY/WX    TMP DP  RH WIND       PRES   REMARKS
CHADRON        CLOUDY    58  50  75 SE6       30.00F
ALLIANCE       MOCLDY    52  49  89 SE8       30.02F
SCOTTSBLUFF    MOCLDY    57  52  83 E7        30.03S
SIDNEY         PTCLDY    50  48  93 S7        30.06S

...WESTERN AND NORTH CENTRAL NEBRASKA...

CITY           SKY/WX    TMP DP  RH WIND       PRES   REMARKS
VALENTINE      CLEAR     53  49  86 W5        30.01R
AINSWORTH      CLEAR     56  50  81 SW5       30.01S
ONEILL         CLEAR     59  53  82 W8        29.97S
BROKEN BOW     CLEAR     57  49  74 W6        30.01S
IMPERIAL       CLEAR     53  49  86 SE6       30.04S
NORTH PLATTE   CLEAR     52  48  86 CALM      30.04S
MCCOOK         CLEAR     57  48  72 E3        30.02F

...EASTERN NEBRASKA...

CITY           SKY/WX    TMP DP  RH WIND       PRES   REMARKS
NORFOLK        CLEAR     57  52  83 W7        29.94S
SO SIOUX CITY  PTCLDY    58  54  86 CALM      29.91S
TEKAMAH        PTCLDY    57  54  89 SW7       29.92R
COLUMBUS         N/A    N/A N/A N/A MISG        N/A
ALBION         CLEAR     57  49  75 NW5       29.97S
OMAHA EPPLEY   CLEAR     58  56  93 NW3       29.93R
OFFUTT AFB     CLEAR     58  54  88 NW7       29.92R
MILLARD        CLEAR     63  55  77 CALM      29.93R
LINCOLN        CLEAR     61  53  75 NW3       29.95S
NEBRASKA CITY  CLEAR     60  54  78 W8        29.94S
BEATRICE       CLEAR     57  53  86 W6        29.97S
FALLS CITY     CLEAR     62  56  80 W8        29.95R

...NORTHERN KANSAS...

CITY           SKY/WX    TMP DP  RH WIND       PRES   REMARKS
GOODLAND       CLEAR     54  51  90 SE6       30.06R
HILL CITY      CLEAR     54  50  86 CALM      30.03R
NORTON         CLEAR     54  45  71 CALM      30.02S
PHILLIPSBURG   CLEAR     55  55 100 CALM      30.02R
SMITH CENTER   CLEAR     57  50  77 CALM      30.01F
HAYS           CLEAR     57  48  72 CALM      30.03R
RUSSELL        CLEAR     59  53  80 E6        30.01S
CONCORDIA      PTCLDY    60  53  77 W6        30.00S
SALINA         CLEAR     63  55  75 NW6       29.99F
TOPEKA         MOCLDY    65  59  81 W5        29.96S



USA.gov is the U.S. government's official web portal to all federal, state and local government web resources and services.